[[{"header":{"parameterUnit":"m.s-1","parameterCategory":1,"la1":30.2991,"la2":30.254,"lo1":-89.0895,"lo2":-89.0444,"dy":0.0017,"dx":0.0017,"nx":28,"ny":28,"refTime":"2023-09-21T09:00:00:Z","depth":0,"parameterNumber":2,"parameterNumberName":"U-component_of_WINDS"},"data":[0,0,0,0,0,0,0,0,0,0,0,0,0,0,0,0,0,0,0,0,0,0,0,0,0,0,0,0,0,0,0,0,0,0,0,0,0,0,0,0,0,0,0,0,0,0,0,0,0,0,0,0,0,0,0,0,0,0,-4.7995,-4.7995,0,-4.803,-4.803,-4.803,-4.7939,-4.7936,-4.7934,-4.7931,-4.7967,-4.7971,-4.7975,0,0,0,0,0,0,0,0,0,0,0,0,0,-4.7851,-4.7854,-4.7995,-4.7995,-4.7996,-4.8029,-4.803,-4.803,-4.794,-4.7936,-4.7933,-4.793,-4.7966,-4.7971,-4.7975,0,0,0,0,0,0,0,0,0,0,0,0,0,-4.7903,-4.7855,-4.7995,-4.7954,-4.7951,-4.8029,-4.803,-4.8031,-4.7941,-4.7936,-4.7932,-4.7928,-4.7965,-4.797,-4.7975,-4.8095,0,0,-4.7992,-4.7994,0,0,0,0,0,0,0,0,-4.79,-4.7908,-4.796,-4.7957,-4.7954,-4.7976,-4.7993,-4.8052,-4.7942,-4.7945,-4.7931,-4.7926,-4.7974,-4.7978,-4.7994,-4.8096,-4.8098,-4.7993,-4.7996,-4.7998,-4.8,0,0,0,0,0,0,0,-4.7896,-4.7906,-4.8008,-4.7961,-4.7957,-4.7935,-4.7938,-4.8004,-4.7983,-4.7944,-4.7937,-4.7943,-4.7971,-4.7989,-4.7994,-4.8098,-4.7992,-4.7997,-4.8001,-4.8003,-4.8303,-4.8307,0,0,0,0,0,0,-4.7898,-4.7904,-4.8007,-4.8009,-4.7916,-4.7941,-4.7944,-4.7973,-4.7982,-4.7979,-4.7946,-4.7938,-4.7982,-4.7988,-4.7995,-4.8137,-4.7998,-4.8003,-4.8006,-4.8298,-4.8304,-4.8309,0,0,0,0,0,0,-4.7895,-4.7908,-4.8006,-4.7955,-4.7966,-4.7948,-4.7981,-4.7976,-4.7994,-4.7984,-4.7979,-4.7968,-4.7979,-4.7988,-4.8071,-4.8137,-4.8006,-4.8011,-4.8292,-4.83,-4.8306,-4.8421,0,0,0,0,0,0,-4.7891,-4.7907,-4.7952,-4.7956,-4.7969,-4.8081,-4.7985,-4.798,-4.8003,-4.7993,-4.8003,-4.8001,-4.7976,-4.8063,-4.8077,-4.8142,-4.8015,-4.8286,-4.8296,-4.8304,-4.8411,-4.8431,-4.8448,0,0,0,0,0,-4.7887,-4.7983,-4.7955,-4.7968,-4.8024,-4.8085,-4.8092,-4.8061,-4.8009,-4.8054,-4.8048,-4.8,-4.8127,-4.8073,-4.8087,-4.8155,-4.8282,-4.8293,-4.8303,-4.8403,-4.8427,-4.8448,0,0,0,0,0,0,-4.7986,-4.7982,-4.7951,-4.8052,-4.807,-4.8069,-4.8125,-4.8088,-4.8121,-4.811,-4.8071,-4.8074,-4.8165,-4.8168,-4.8107,-4.8272,-4.8196,-4.821,-4.8267,-4.829,-4.8308,-4.8306,-4.8019,0,0,0,0,0,-4.802,-4.8069,-4.8063,-4.8152,-4.8163,-4.8143,-4.8168,-4.8143,-4.816,-4.8167,-4.8167,-4.8185,-4.823,-4.826,-4.8299,-4.8411,-4.8413,-4.8465,-4.8483,-4.8498,-4.8511,-4.8573,-4.8597,-4.8344,-4.8343,-4.8343,0,0,-4.809,-4.8094,-4.8127,-4.8172,-4.8183,-4.8236,-4.815,-4.8209,-4.8248,-4.8176,-4.8256,-4.8256,-4.8274,-4.8373,-4.8417,-4.8378,-4.8582,-4.8512,-4.8524,-4.8529,-4.8586,-4.861,-4.8632,-4.8351,-4.8349,-4.8348,0,0,-4.8244,-4.8252,-4.8328,-4.8341,-4.8358,-4.8345,-4.8363,-4.837,-4.8368,-4.8446,-4.8394,-4.8441,-4.8517,-4.8533,-4.8551,-4.8714,-4.8673,-4.8728,-4.8825,-4.8885,-4.8905,-4.8923,-4.8983,-4.9005,-4.8741,-4.8741,-4.8741,0,-4.8329,-4.8407,-4.8372,-4.8435,-4.8458,-4.8395,-4.8473,-4.8487,-4.8517,-4.8534,-4.8491,-4.8587,-4.8595,-4.8697,-4.8738,-4.8753,-4.8775,-4.8727,-4.8905,-4.8923,-4.8938,-4.8996,-4.9018,-4.8748,-4.8747,-4.8746,-4.8746,0,-4.8511,-4.8566,-4.8625,-4.8657,-4.8685,-4.8756,-4.8732,-4.8766,-4.8739,-4.873,-4.8813,-4.882,-4.8862,-4.8884,-4.8857,-4.8984,-4.896,-4.8912,-4.8835,-4.897,-4.9023,-4.9045,-4.8758,-4.8755,-4.8753,-4.8752,0,0,-4.873,-4.8742,-4.8764,-4.8779,-4.8794,-4.8836,-4.8905,-4.8945,-4.8976,-4.8999,-4.9056,-4.9123,-4.9079,-4.91,-4.9075,-4.9128,-4.926,-4.9073,-4.9073,-4.911,-4.9402,-4.944,-4.9466,-4.9232,-4.9236,-4.9239,-4.9402,0,-4.8884,-4.9001,-4.8973,-4.9089,-4.914,-4.9082,-4.9142,-4.9159,-4.9153,-4.9196,-4.9189,-4.9239,-4.9176,-4.9188,-4.9238,-4.9234,-4.9319,-4.9221,-4.9287,-4.929,-4.9286,-4.9493,-4.9533,-4.9685,-4.9422,-4.9425,-4.9428,0,-4.908,-4.9112,-4.9234,-4.9243,-4.9263,-4.9317,-4.9354,-4.9395,-4.9413,-4.9406,-4.943,-4.9395,-4.9464,-4.9386,-4.9482,-4.9416,-4.9441,-4.9443,-4.9449,-4.9455,-4.9368,-4.9507,-4.9733,-4.9757,-4.946,-4.9457,-4.9455,0,-4.923,-4.9303,-4.9385,-4.9399,-4.9412,-4.9452,-4.9459,-4.9473,-4.95,-4.9531,-4.9549,-4.9588,-4.9611,-4.9642,-4.962,-4.9565,-4.972,-4.9639,-4.9717,-4.9718,-4.9754,-4.9752,-4.9989,-4.9767,-4.9767,-4.9766,-4.9766,0,-4.9406,-4.9484,-4.9453,-4.9505,-4.959,-4.9557,-4.9643,-4.9643,-4.9657,-4.9708,-4.9659,-4.9709,-4.9675,-4.9722,-4.9705,-4.9788,-4.9798,-4.9795,-4.979,-4.98,-4.9801,-4.9817,-4.9807,-4.9772,-4.9771,-4.977,-4.9769,0,-4.9589,-4.9571,-4.9658,-4.9663,-4.9666,-4.9729,-4.9734,-4.9782,-4.9773,-4.9839,-4.9852,-4.9838,-4.9891,-4.9872,-4.9928,-4.9917,-5.0024,-5.0003,-5.0018,-5.0013,-5.0093,-5.0087,-5.035,-5.0384,-5.0139,-5.0141,-5.0143,0,-4.9703,-4.9762,-4.9773,-4.9804,-4.9815,-4.9865,-4.9893,-4.9863,-4.9894,-4.9921,-4.9966,-5.0015,-5.0052,-5.014,-5.0136,-5.0179,-5.0161,-5.025,-5.0167,-5.0177,-5.0165,-5.0163,-5.0169,-5.0267,-5.027,-5.0273,-5.0274,0,-4.991,-4.9898,-4.994,-4.998,-5.0015,-5.0044,-5.0069,-5.0098,-5.0069,-5.0107,-5.016,-5.019,-5.0248,-5.0298,-5.0337,-5.0345,-5.0307,-5.0301,-5.0321,-5.0334,-5.034,-5.034,-5.0065,-5.0295,-5.0293,-5.0291,-5.029,-5.0289,-5.0063,-5.0113,-5.013,-5.0178,-5.0195,-5.022,-5.0266,-5.0264,-5.0308,-5.0353,-5.0332,-5.0395,-5.0414,-5.0463,-5.0477,-5.0526,-5.0492,-5.0521,-5.0529,-5.0537,-5.0549,-5.0331,-5.0533,-5.0532,-5.0532,-5.0531,-5.0531,0,-5.0268,-5.0277,-5.0322,-5.0359,-5.0398,-5.0358,-5.0384,-5.042,-5.0476,-5.0496,-5.0535,-5.0598,-5.0646,-5.0647,-5.0692,-5.0732,-5.0716,-5.0745,-5.0743,-5.0746,-5.0576,-5.0554,-5.0758,-5.0758,-5.0758,-5.0758,-5.0758,-5.0758,-5.038,-5.0463,-5.0455,-5.0546,-5.0554,-5.0615,-5.0634,-5.0658,-5.0675,-5.0747,-5.0788,-5.0787,-5.08,-5.0847,-5.089,-5.0889,-5.0909,-5.0946,-5.0939,-5.078,-5.0757,-5.0736,-5.0716,-5.095,-5.095,-5.1105,-5.1106,-5.1107]},{"header":{"parameterUnit":"m.s-1","parameterCategory":1,"la1":30.2991,"la2":30.254,"lo1":-89.0895,"lo2":-89.0444,"dy":0.0017,"dx":0.0017,"nx":28,"ny":28,"refTime":"2023-09-21T09:00:00:Z","depth":0,"parameterNumber":3,"parameterNumberName":"V-component_of_WINDS"},"data":[0,0,0,0,0,0,0,0,0,0,0,0,0,0,0,0,0,0,0,0,0,0,0,0,0,0,0,0,0,0,0,0,0,0,0,0,0,0,0,0,0,0,0,0,0,0,0,0,0,0,0,0,0,0,0,0,0,0,-2.2079,-2.2079,0,-2.2108,-2.2109,-2.2109,-2.2076,-2.2075,-2.2073,-2.2072,-2.2103,-2.2105,-2.2107,0,0,0,0,0,0,0,0,0,0,0,0,0,-2.1992,-2.1994,-2.2079,-2.2079,-2.2079,-2.2108,-2.2109,-2.2109,-2.2076,-2.2075,-2.2073,-2.2072,-2.2102,-2.2105,-2.2107,0,0,0,0,0,0,0,0,0,0,0,0,0,-2.2026,-2.1994,-2.2079,-2.2066,-2.2066,-2.2108,-2.2109,-2.2109,-2.2077,-2.2075,-2.2073,-2.2071,-2.2101,-2.2104,-2.2107,-2.2164,0,0,-2.2116,-2.2118,0,0,0,0,0,0,0,0,-2.2025,-2.203,-2.2068,-2.2067,-2.2067,-2.2087,-2.2089,-2.2128,-2.2077,-2.2072,-2.2072,-2.207,-2.2099,-2.2102,-2.2112,-2.2165,-2.2166,-2.2117,-2.2118,-2.212,-2.2121,0,0,0,0,0,0,0,-2.2022,-2.2028,-2.209,-2.2068,-2.2068,-2.2059,-2.2062,-2.2096,-2.2096,-2.2073,-2.207,-2.2074,-2.2098,-2.2109,-2.2112,-2.2167,-2.2117,-2.2119,-2.2121,-2.2122,-2.2266,-2.2268,0,0,0,0,0,0,-2.2021,-2.2026,-2.2089,-2.2091,-2.204,-2.2062,-2.2065,-2.2082,-2.2095,-2.2096,-2.2076,-2.2073,-2.2105,-2.2109,-2.2113,-2.218,-2.212,-2.2123,-2.2124,-2.2264,-2.2267,-2.2269,0,0,0,0,0,0,-2.202,-2.2027,-2.2088,-2.2058,-2.2065,-2.2066,-2.2085,-2.2084,-2.2094,-2.2098,-2.2098,-2.2087,-2.2104,-2.2109,-2.2151,-2.218,-2.2124,-2.2127,-2.2262,-2.2265,-2.2268,-2.2313,0,0,0,0,0,0,-2.2017,-2.2027,-2.2049,-2.2059,-2.2067,-2.2126,-2.2087,-2.2086,-2.21,-2.2096,-2.2108,-2.2109,-2.2102,-2.2147,-2.2154,-2.2183,-2.2129,-2.2259,-2.2263,-2.2267,-2.2309,-2.2317,-2.2324,0,0,0,0,0,-2.2014,-2.206,-2.205,-2.2058,-2.2094,-2.2128,-2.2132,-2.2125,-2.2102,-2.2124,-2.2126,-2.2108,-2.2176,-2.2151,-2.2159,-2.219,-2.2258,-2.2262,-2.2267,-2.2306,-2.2316,-2.2324,0,0,0,0,0,0,-2.2054,-2.2061,-2.205,-2.2101,-2.2114,-2.2122,-2.2149,-2.2136,-2.2155,-2.2151,-2.214,-2.2143,-2.2188,-2.2193,-2.2166,-2.2244,-2.2213,-2.2219,-2.224,-2.2249,-2.2257,-2.2255,-2.2131,0,0,0,0,0,-2.2068,-2.2095,-2.21,-2.2145,-2.2152,-2.2149,-2.2164,-2.2156,-2.2169,-2.2175,-2.218,-2.2193,-2.2217,-2.2233,-2.2256,-2.2309,-2.2311,-2.2334,-2.2342,-2.2348,-2.2354,-2.2382,-2.2392,-2.2284,-2.2284,-2.2284,0,0,-2.2099,-2.2106,-2.2124,-2.2153,-2.2162,-2.219,-2.2154,-2.2185,-2.2206,-2.2179,-2.222,-2.2224,-2.2237,-2.2285,-2.2307,-2.2291,-2.2384,-2.2354,-2.2359,-2.2361,-2.2388,-2.2398,-2.2407,-2.2287,-2.2287,-2.2286,0,0,-2.2168,-2.2177,-2.2215,-2.2224,-2.2238,-2.2236,-2.2245,-2.2256,-2.2257,-2.2297,-2.2278,-2.2301,-2.2343,-2.2354,-2.2365,-2.2437,-2.2422,-2.2444,-2.2485,-2.2513,-2.2521,-2.2529,-2.2555,-2.2564,-2.245,-2.245,-2.245,0,-2.2205,-2.2246,-2.2236,-2.2268,-2.2281,-2.2258,-2.2295,-2.2305,-2.2326,-2.2336,-2.2317,-2.2369,-2.2377,-2.2426,-2.2444,-2.2453,-2.2463,-2.2444,-2.2521,-2.2528,-2.2535,-2.256,-2.2569,-2.2453,-2.2453,-2.2452,-2.2452,0,-2.2289,-2.2318,-2.2347,-2.2367,-2.2383,-2.2418,-2.2413,-2.243,-2.2421,-2.2421,-2.2461,-2.2469,-2.2493,-2.2503,-2.2495,-2.2552,-2.2542,-2.2522,-2.2491,-2.2548,-2.2571,-2.258,-2.2457,-2.2456,-2.2455,-2.2454,0,0,-2.2387,-2.24,-2.2411,-2.2419,-2.2433,-2.2455,-2.2488,-2.251,-2.2525,-2.254,-2.2568,-2.2603,-2.2585,-2.2597,-2.2589,-2.2613,-2.267,-2.2591,-2.2591,-2.2605,-2.2733,-2.2748,-2.2759,-2.2659,-2.2661,-2.2662,-2.2732,0,-2.2457,-2.2515,-2.2506,-2.2562,-2.2588,-2.2566,-2.2594,-2.2605,-2.2606,-2.2627,-2.2627,-2.2653,-2.2627,-2.2634,-2.2657,-2.2658,-2.2695,-2.2653,-2.2685,-2.2686,-2.2683,-2.2771,-2.2787,-2.2852,-2.274,-2.2742,-2.2743,0,-2.2547,-2.2565,-2.2623,-2.2632,-2.2642,-2.2668,-2.2688,-2.2709,-2.2721,-2.2719,-2.2732,-2.272,-2.2752,-2.2719,-2.2764,-2.2735,-2.2747,-2.275,-2.2752,-2.2755,-2.2719,-2.2777,-2.2873,-2.2883,-2.2757,-2.2756,-2.2755,0,-2.2612,-2.265,-2.269,-2.2698,-2.2709,-2.2728,-2.2733,-2.2743,-2.2757,-2.2773,-2.2782,-2.2803,-2.2814,-2.283,-2.2823,-2.2799,-2.2869,-2.2835,-2.2869,-2.2869,-2.2885,-2.2885,-2.2985,-2.2892,-2.2892,-2.2892,-2.2892,0,-2.2692,-2.2729,-2.2719,-2.2744,-2.2784,-2.2773,-2.2813,-2.2816,-2.2824,-2.2849,-2.283,-2.2853,-2.2842,-2.2864,-2.2859,-2.2897,-2.2902,-2.2902,-2.29,-2.2904,-2.2904,-2.2912,-2.2908,-2.2894,-2.2894,-2.2893,-2.2893,0,-2.2772,-2.2767,-2.2809,-2.2816,-2.2818,-2.2847,-2.2853,-2.2875,-2.2873,-2.2904,-2.2911,-2.2908,-2.2933,-2.2928,-2.2955,-2.2951,-2.2999,-2.2991,-2.2995,-2.2994,-2.3028,-2.3025,-2.3138,-2.3152,-2.3049,-2.305,-2.3051,0,-2.2824,-2.2851,-2.286,-2.2875,-2.2882,-2.2906,-2.292,-2.291,-2.2925,-2.2939,-2.296,-2.2984,-2.3002,-2.3043,-2.3044,-2.3064,-2.3057,-2.3095,-2.306,-2.3063,-2.3058,-2.3057,-2.306,-2.3103,-2.3104,-2.3105,-2.3106,0,-2.2916,-2.2912,-2.2933,-2.2953,-2.297,-2.2985,-2.2998,-2.3011,-2.3002,-2.3019,-2.3045,-2.3059,-2.3086,-2.311,-2.3129,-2.3134,-2.3118,-2.3116,-2.3125,-2.313,-2.3131,-2.3131,-2.3015,-2.3114,-2.3113,-2.3113,-2.3112,-2.3112,-2.2984,-2.3007,-2.3017,-2.304,-2.3049,-2.3062,-2.3083,-2.3084,-2.3105,-2.3127,-2.3119,-2.3148,-2.3157,-2.3181,-2.3188,-2.3211,-2.3196,-2.3209,-2.3212,-2.3216,-2.322,-2.3127,-2.3214,-2.3214,-2.3213,-2.3213,-2.3213,0,-2.3075,-2.308,-2.3102,-2.3121,-2.3139,-2.3122,-2.3136,-2.3152,-2.3178,-2.3188,-2.3206,-2.3235,-2.3257,-2.3259,-2.328,-2.3297,-2.3291,-2.3303,-2.3302,-2.3304,-2.3232,-2.3222,-2.3308,-2.3308,-2.3308,-2.3308,-2.3308,-2.3308,-2.3125,-2.3164,-2.3161,-2.3203,-2.3207,-2.3236,-2.3245,-2.3256,-2.3264,-2.3297,-2.3316,-2.3316,-2.3323,-2.3344,-2.3363,-2.3363,-2.3372,-2.3387,-2.3385,-2.3318,-2.3309,-2.33,-2.3291,-2.3389,-2.3389,-2.3454,-2.3455,-2.3456]}]]